AirNav  
 
 901 users online  

K57 Gould Peterson Municipal Airport
Tarkio, Missouri, USA

GOING TO TARKIO?


FAA INFORMATION EFFECTIVE 25 FEBRUARY 2021

Location

FAA Identifier: K57
Lat/Long: 40-26-45.3660N 095-22-02.2850W
40-26.756100N 095-22.038083W
40.4459350,-95.3673014
(estimated)
Elevation: 912.9 ft. / 278.3 m (surveyed)
Variation: 03E (2010)
From city: 1 mile E of TARKIO, MO
Time zone: UTC -6 (UTC -5 during Daylight Saving Time)
Zip code: 64491

Airport Operations

Airport use: Open to the public
Activation date: 05/1941
Control tower: no
ARTCC: MINNEAPOLIS CENTER
FSS: COLUMBIA FLIGHT SERVICE STATION
NOTAMs facility: COU (NOTAM-D service available)
Attendance: APR-OCT MON-FRI 0800-1700, APR-OCT SAT 0800-1200, NOV-MAR IREG IREG
Wind indicator: lighted
Segmented circle: no
Lights: TO INCR INTST & ACTVT MIRL RWY 18/36 - CTAF.
Beacon: white-green (lighted land airport)
Operates sunset to sunrise.

Airport Communications

CTAF: 122.9
WX AWOS-3 at SDA (18 nm N): 125.525 (712-246-4021)
  • APCH/DEP SVC PRVDD BY MINNEAPOLIS ARTCC ON FREQS 119.6/290.4 (OMAHA RCAG).

Nearby radio navigation aids

VOR radial/distance  VOR name  Freq  Var
STJr317/35.5ST JOSEPH VORTAC115.5008E

 
NDB name  Hdg/Dist  Freq  Var  ID
NEBRASKA CITY108/24.534705EAFK .- ..-. -.-
PLATTSMOUTH135/38.832905EPMV .--. -- ...-
AMAZON324/39.823304EAZN .- --.. -.

Airport Services

Fuel available: 100LL
Parking: tiedowns
Airframe service: MINOR
Powerplant service: MINOR
Bottled oxygen: NONE
Bulk oxygen: NONE

Runway Information

Runway 18/36

Dimensions: 3564 x 60 ft. / 1086 x 18 m
Surface: concrete, in good condition
Weight bearing capacity: 
PCN 5 /R/D/W/T
Single wheel: 16.0
Runway edge lights: medium intensity
RUNWAY 18  RUNWAY 36
Latitude: 40-27.049580N40-26.462608N
Longitude: 095-22.033062W095-22.043107W
Elevation: 912.9 ft.909.3 ft.
Traffic pattern: leftleft
Runway heading: 178 magnetic, 181 true358 magnetic, 001 true
Displaced threshold: 330 ft.no
Markings: nonprecision, in good conditionnonprecision, in good condition
Touchdown point: yes, no lightsyes, no lights
Obstructions: 15 ft. road, 391 ft. from runway, 12:1 slope to clear
+97 FT TREES, 1754 FT FM RWY END, 475 FT R-L, 18:1 BASED ON DSPLCD THLD.
none

Airport Ownership and Management from official FAA records

Ownership: Publicly-owned
Owner: CITY OF TARKIO
602 MAIN STREET
TARKIO, MO 64491
Phone 660-736-4821
Manager: BROOKS HURST
19206 STATE HWY O
TARKIO, MO 64491
Phone 816-244-6927

Airport Operational Statistics

Aircraft based on the field: 17
Single engine airplanes: 17
    
Aircraft operations: avg 95/week *
57% local general aviation
42% transient general aviation
<1% military
<1% air taxi
* for 12-month period ending 31 December 2019

Additional Remarks

CROP DUSTING ACFT ON & INVOF ARPT.
WILDLIFE ON & INVOF ARPT.
FOR CD CTC MINNEAPOLIS ARTCC AT 651-463-5588.

Instrument Procedures

NOTE: All procedures below are presented as PDF files. If you need a reader for these files, you should download the free Adobe Reader.

NOT FOR NAVIGATION. Please procure official charts for flight.
FAA instrument procedures published for use from 25 February 2021 at 0901Z to 25 March 2021 at 0900Z.

 
IAPs - Instrument Approach Procedures
RNAV (GPS) RWY 18   download (239KB)
RNAV (GPS) RWY 36   download (241KB)
NOTE: Special Take-Off Minimums/Departure Procedures apply   download (453KB)

Other nearby airports with instrument procedures:

KSDA - Shenandoah Municipal Airport (18 nm N)
K01 - Farington Field Airport (20 nm W)
KEVU - Northwest Missouri Regional Airport (21 nm E)
KICL - Schenck Field Airport (23 nm NE)
KFNB - Brenner Field Airport (24 nm SW)
 
Loc | Ops | Rwys | IFR | FBO | Links
Com | Nav | Svcs | Stats | Notes
Area around K57 (Gould Peterson Municipal Airport)
 
Road maps at: MapQuest Bing Google
 
Aerial photo
WARNING: Photo may not be current or correct
Aerial photo of K57 (Gould Peterson Municipal Airport)
Do you have a better or more recent aerial photo of Gould Peterson Municipal Airport that you would like to share? If so, please send us your photo.

 
Sectional chart

 
Airport distance calculator
Flying to Gould Peterson Municipal Airport? Find the distance to fly.

From to K57

Sunrise and sunset
Times for 07-Mar-2021
 Local
(UTC-6)
 Zulu
(UTC)
Morning civil twilight06:2012:20
Sunrise06:4712:47
Sunset18:1800:18
Evening civil twilight18:4500:45

Current date and time
Zulu (UTC)  08-Mar-2021 01:48:39
Local (UTC-6)  07-Mar-2021 19:48:39
 
METAR
KSDA 
18nm N 
080135Z AUTO 18013KT 10SM CLR 14/01 A3014 RMK AO2
KEVU 
21nm E 
080135Z AUTO 20008KT 10SM CLR 12/M01 A3019 RMK AO2 T01211008
KICL 
23nm NE 
080135Z AUTO 20009KT 10SM CLR 13/M01 A3018 RMK AO2
KAFK 
25nm NW 
080135Z AUTO 20013KT 10SM CLR 15/M02 A3015 RMK AO2 T01501016
KFNB 
25nm SW 
080053Z AUTO 20009KT 10SM CLR 16/M01 A3017 RMK AO2 SLP217 T01561006
KRDK 
35nm N 
080135Z AUTO 19009KT 10SM CLR 13/02 A3015 RMK AO2
TAF
KSTJ 
46nm SE 
071727Z 0718/0818 20020G30KT P6SM SCT150 FM080200 20012KT P6SM SKC WS015/22045KT FM081500 20015G25KT P6SM SCT060
NOTAMs
Click for the latest NOTAMs
NOTAMs are issued by the DoD/FAA and will open in a separate window not controlled by AirNav.

 

 
 

FBO, Fuel Providers, and Aircraft Ground Support

  
 Business Name 
 
 Contact 
 
 Services / Description 
 
Fuel Prices
 
Comments
  
Wing Nuts Flying Circus Aviation 816-244-6927
660-736-4322
[web site]
[email]
Airport management, Aviation fuel, Aircraft parking (ramp or tiedown), Hangars, Passenger terminal and lounge, Flying club, Airshow or aviation event, ...

More info about Wing Nuts Flying Circus Aviation
Phillips 66
100LL
SS $4.50 
 Updated 10-Sep-2020
 
   write
SS=Self service
Update Fuel Prices
 

Would you like to see your business listed on this page?

 If your business provides an interesting product or service to pilots, flight crews, aircraft, or users of the Gould Peterson Municipal Airport, you should consider listing it here.  To start the listing process, click on the button below
 
Add a business
 

Other Pages about Gould Peterson Municipal Airport

Update a link
 
Copyright © AirNav, LLC. All rights reserved. Privacy Policy  Contact